Notices

What's New in latest Release from April 7th, 2021:

- Updated Glossary, including Speed of Maximum Gust, and Total Hourly Precipitation

- Updated national and regional climate services offices contacts and prices information

- Addition of station inventory lists for 1981-2010, 1971-2000, and 1961-1990 Normals.

If you haven't already, please take our survey and provide feedback about our website: https://eccc.sondage-survey.ca/f/LanguageSelection.aspx?s=442ca660-fcf1-47c0-95a9-59707d6fd709

Hourly Data Report for December 31, 2004

SHERBROOKE A
QUEBEC

45°26'00.000" N
71°41'00.000" W
241.40 m
7028124
71610
YSC

Download Data

Hourly Data (December 2004)
Hourly Data Report for December 31, 2004
TIME
LST
Temp Definition
°C
Dew Point Definition
°C
Rel Hum Definition
%
Precip. Amount Definition
mm

Wind Dir Definition
10's deg

Wind Spd Definition
km/h
Visibility Definition
km
Stn Press Definition
kPa
Hmdx Definition


Wind Chill Definition


Weather Definition


00:00 -12.1 -14.3 84   9 9 15.0 100.09   -17  
01:00 -12.3 -14.1 86   5 6 15.0 100.02   -16  
02:00 -11.9 -14.1 84   9 7 15.0 99.94   -16  
03:00 -10.6 -12.7 85   7 4 15.0 99.84   -13  
04:00 -8.1 -10.5 83   9 7 15.0 99.67   -12  
05:00 -6.6 -8.7 85   7 4 15.0 99.52   -9  
06:00 -2.8 -5.4 82   15 7 15.0 99.41   -6  
07:00 1.2 -3.7 70   18 13 15.0 99.30     Rain
08:00 1.1 -1.5 83   16 19 16.1 99.11     Rain
09:00 1.9 -0.6 83   19 17 12.9 99.07     Rain
10:00 2.5 0.4 86   20 20 12.9 99.01     Rain
11:00 3.2 1.3 87   19 20 16.1 98.87     Rain
12:00 3.4 1.3 86   19 22 12.9 98.81     Rain
13:00 3.5 1.4 86   20 20 19.3 98.69     Rain
14:00 3.6 1.7 87   20 22 16.1 98.63     Rain
15:00 3.7 2.0 89   21 17 12.9 98.63     Rain
16:00 3.8 2.1 89   20 19 12.9 98.60     Rain
17:00 4.0 2.3 89   19 9 19.3 98.61     Cloudy
18:00 4.3 2.6 89   18 6 15.0 98.56      
19:00 4.8 2.6 86   20 9 15.0 98.51      
20:00 5.1 2.6 84   19 15 15.0 98.42      
21:00 5.7 2.9 82   20 19 15.0 98.32      
22:00 5.7 2.9 82   20 19 15.0 98.25      
23:00 5.9 3.3 83   21 15 15.0 98.25      

Notes on Data Quality.

Legend

  • E = Estimated
  • M = Missing
  • NA = Not Available*
  • [empty] = Indicates an unobserved value
Date modified: